Flock 4be-13

operational
NORAD ID: 60512 Int'l Des: 2024-149 Owner: PLAN Country: US Constellation: planet
LEOCIRCULARRETROGRADESSO

About Flock 4be-13

Description loading...

Live Position

Loading 3D Globe...

Upcoming Passes

Altitude History

Altitude vs Time

uPlot chart will show altitude changes over time

Two-Line Element Set

1 60512U 24149AW 25312.81178781 .00026413 00000-0 81389-3 0 9996
2 60512 97.3928 30.9692 0004377 356.7755 3.3459 15.33583633 68493
Epoch: Nov 8, 2025 • Age: 39 hours

Current Status

Altitude 466.3 km
Velocity 7.64 km/s
Sub-Earth Point 28.99°N, 177.29°E
Launch Date Aug 16, 2024
Age 1.2 years
Type earth observation

Technical Details

Classification Payload
Mass 5.70 kg
Dry Mass 5.70 kg
Total Mass 5.70 kg
Length 0.30 m
Diameter 0.10 m
Span 0.30 m
Shape Box+2 pan
Manufacturer PLAN
Bus Type Cubesat 3U
Phase Status In Orbit
Owner/State PLAN/US

Large Constellations

Loading constellations...